Faro, Portugal

12:02 AM WET on November 22, 2019 (GMT +0000)
Faro

Weather History for LPFR - September, 2019

Change the Weather History Date:

Friday, September 13, 2019

  Actual Average Record
Temperature  
Mean Temperature 75 °F -  
Max Temperature 82 °F 74 °F 91 °F (1998)
Min Temperature 68 °F 61 °F 57 °F (1996)
Cooling Degree Days 10    
Growing Degree Days 25 (Base 50)    
Moisture  
Dew Point 58 °F    
Average Humidity 55    
Maximum Humidity 88    
Minimum Humidity 33    
Precipitation  
Precipitation 0.00 in 0.05 in - ()
Sea Level Pressure  
Sea Level Pressure 30.08 in    
Wind  
Wind Speed 8 mph ()    
Max Wind Speed 25 mph    
Max Gust Speed 24 mph    
Visibility 8.2 miles    
Events      
Averages and records for this station are not official NWS values.
T = Trace of Precipitation, MM = Missing Value Source: Averaged Metar Reports

Daily Weather History Graph

Daily Weather History Graph

Search for Another Location

Airport or City:

Astronomy

Sep. 13, 2019 Rise Set
Actual Time 7:12 AM WEST 7:43 PM WEST
Civil Twilight 6:45 AM WEST 8:09 PM WEST
Nautical Twilight 6:15 AM WEST 8:39 PM WEST
Astronomical Twilight 5:43 AM WEST 9:11 PM WEST
Moon 7:48 PM WEST (9/13) 6:18 AM WEST (9/13)
Length of Visible Light 13h 23m
Length of Day
12h 31m
Full, 100% of the Moon is Illuminated
Sep 13
Full
Sep 14
Full
Sep 22
Last Quarter
Sep 28
New
Oct 5
First Quarter

Hourly Weather History & Observations

Time (WEST) Temp. Heat Index Dew Point Humidity Pressure Visibility Wind Dir Wind Speed Gust Speed Precip Events Conditions
12:00 AM 71 °F - 59 °F 56% 30.16 in - NW 4.5 mph - -  
12:00 AM 69.8 °F - 60.8 °F 73% 30.12 in - WNW 5.8 mph - N/A   Clear
12:30 AM 69.8 °F - 57.2 °F 64% 30.12 in - NW 4.6 mph - N/A   Clear
1:00 AM 69 °F - 56 °F 54% 30.15 in 16 mi NNW 4.5 mph - -   Clear
1:00 AM 68.0 °F - 57.2 °F 68% 30.12 in - NW 3.5 mph - N/A   Clear
1:30 AM 68.0 °F - 55.4 °F 64% 30.12 in - NNW 4.6 mph - N/A   Clear
2:00 AM 68.0 °F - 53.6 °F 60% 30.09 in - North 3.5 mph - N/A   Clear
2:30 AM 71.6 °F - 53.6 °F 53% 30.09 in - North 6.9 mph - N/A   Clear
3:00 AM 71.6 °F - 55.4 °F 57% 30.09 in - NNE 8.1 mph - N/A   Clear
3:30 AM 71.6 °F - 57.2 °F 60% 30.09 in - NE 11.5 mph - N/A   Clear
4:00 AM 72 °F - 57 °F 50% 30.13 in 16 mi ENE 8.9 mph - -   Clear
4:00 AM 71.6 °F - 57.2 °F 60% 30.09 in - ENE 10.4 mph - N/A   Clear
4:30 AM 71.6 °F - 57.2 °F 60% 30.09 in - NE 8.1 mph - N/A   Clear
5:00 AM 71 °F - 57 °F 52% 30.11 in - ENE 6.7 mph - -  
5:00 AM 69.8 °F - 57.2 °F 64% 30.09 in - NE 6.9 mph - N/A   Clear
5:30 AM 69.8 °F - 57.2 °F 64% 30.06 in - ENE 6.9 mph - N/A   Clear
6:00 AM 70 °F - 57 °F 53% 30.11 in - NNE 2.2 mph - -  
6:00 AM 71.6 °F - 57.2 °F 60% 30.06 in - ENE 8.1 mph - N/A   Clear
6:30 AM 71.6 °F - 57.2 °F 60% 30.06 in - ENE 8.1 mph - N/A   Clear
7:00 AM 70 °F - 56 °F 53% 30.10 in 16 mi NE 6.7 mph - -   Clear
7:00 AM 69.8 °F - 57.2 °F 64% 30.06 in - NE 9.2 mph - N/A   Clear
7:30 AM 69.8 °F - 57.2 °F 64% 30.06 in - NNE 8.1 mph - N/A   Clear
8:00 AM 71.6 °F - 57.2 °F 60% 30.06 in - ENE 10.4 mph - N/A   Clear
8:30 AM 75.2 °F - 55.4 °F 50% 30.06 in - ENE 13.8 mph - N/A   Clear
9:00 AM 75 °F - 56 °F 40% 30.09 in - ENE 8.9 mph - -  
9:00 AM 75.2 °F - 55.4 °F 50% 30.06 in - ENE 10.4 mph 24.2 mph N/A   Clear
9:30 AM 77.0 °F - 53.6 °F 44% 30.06 in - NE 15.0 mph - N/A   Clear
10:00 AM 78 °F - 54 °F 33% 30.08 in 12 mi ENE 15.7 mph - -   Clear
10:00 AM 77.0 °F - 53.6 °F 44% 30.06 in - ENE 15.0 mph - N/A   Clear
10:30 AM 80.6 °F 80.3 °F 53.6 °F 39% 30.06 in - East 15.0 mph - N/A   Clear
11:30 AM 78.8 °F - 57.2 °F 47% 30.06 in 6.2 mi East 17.3 mph - N/A   Partly Cloudy
12:00 PM 80 °F - 59 °F 38% 30.09 in - East 24.6 mph - -  
12:00 PM 78.8 °F - 57.2 °F 47% 30.06 in 6.2 mi East 19.6 mph - N/A   Partly Cloudy
12:30 PM 78.8 °F - 57.2 °F 47% 30.06 in 6.2 mi East 19.6 mph - N/A   Partly Cloudy
1:00 PM 80 °F - 59 °F 38% 30.09 in 12 mi ESE 9.2 mph - -   Scattered Clouds
1:00 PM 78.8 °F - 57.2 °F 47% 30.06 in 6.2 mi East 17.3 mph - N/A   Partly Cloudy
1:30 PM 78.8 °F - 55.4 °F 44% 30.06 in 6.2 mi East 17.3 mph - N/A   Partly Cloudy
2:00 PM 79 °F - 59 °F 40% 30.09 in - ESE 17.9 mph - -  
2:00 PM 78.8 °F - 59.0 °F 51% 30.06 in 6.2 mi ESE 17.3 mph - N/A   Partly Cloudy
2:30 PM 77.0 °F - 59.0 °F 54% 30.06 in 6.2 mi ESE 16.1 mph - N/A   Partly Cloudy
3:00 PM 78 °F - 59 °F 41% 30.08 in - ESE 13.4 mph - -  
3:00 PM 78.8 °F - 59.0 °F 51% 30.06 in 6.2 mi ESE 11.5 mph - N/A   Partly Cloudy
3:30 PM 77.0 °F - 60.8 °F 57% 30.06 in 6.2 mi SE 9.2 mph - N/A   Partly Cloudy
4:00 PM 78 °F - 61 °F 45% 30.06 in 12 mi SE 11.2 mph - -   Scattered Clouds
4:00 PM 77.0 °F - 59.0 °F 54% 30.04 in 6.2 mi ESE 9.2 mph - N/A   Partly Cloudy
4:30 PM 77.0 °F - 60.8 °F 57% 30.04 in 6.2 mi SE 9.2 mph - N/A   Partly Cloudy
5:00 PM 77 °F - 62 °F 51% 30.06 in - SSE 8.9 mph - -  
5:00 PM 75.2 °F - 62.6 °F 65% 30.04 in 6.2 mi SSE 8.1 mph - N/A   Partly Cloudy
5:30 PM 77.0 °F - 60.8 °F 57% 30.04 in 6.2 mi SE 9.2 mph - N/A   Partly Cloudy
6:00 PM 77 °F - 59 °F 44% 30.06 in - North 2.2 mph - -  
6:30 PM 75.2 °F - 60.8 °F 61% 30.04 in 6.2 mi West 10.4 mph - N/A   Scattered Clouds
7:00 PM 75 °F - 61 °F 52% 30.08 in 12 mi West 11.2 mph - -   Scattered Clouds
7:00 PM 75.2 °F - 60.8 °F 61% 30.06 in 6.2 mi West 10.4 mph - N/A   Scattered Clouds
7:30 PM 75.2 °F - 60.8 °F 61% 30.06 in 6.2 mi WNW 5.8 mph - N/A   Partly Cloudy
8:00 PM 75 °F - 60 °F 49% 30.09 in - WNW 6.7 mph - -  
8:00 PM 75.2 °F - 59.0 °F 57% 30.06 in 6.2 mi West 4.6 mph - N/A   Partly Cloudy
8:30 PM 73.4 °F - 64.4 °F 73% 30.06 in 6.2 mi WNW 4.6 mph - N/A   Partly Cloudy
9:00 PM 74 °F - 61 °F 55% 30.10 in - WNW 6.7 mph - -  
9:00 PM 73.4 °F - 60.8 °F 65% 30.06 in 6.2 mi West 6.9 mph - N/A   Partly Cloudy
9:30 PM 73.4 °F - 60.8 °F 65% 30.06 in 6.2 mi WNW 8.1 mph - N/A   Partly Cloudy
10:00 PM 73 °F - 60 °F 54% 30.10 in 12 mi NW 4.5 mph - -   Scattered Clouds
10:00 PM 73.4 °F - 59.0 °F 61% 30.06 in 6.2 mi NW 4.6 mph - N/A   Partly Cloudy
10:30 PM 73.4 °F - 60.8 °F 65% 30.06 in - West 5.8 mph - N/A   Clear
11:00 PM 69.8 °F - 60.8 °F 73% 30.06 in - SSW 3.5 mph - N/A   Clear
11:30 PM 69.8 °F - 66.2 °F 88% 30.06 in - WSW 4.6 mph - N/A   Clear